[[{"header":{"parameterUnit":"m.s-1","parameterCategory":1,"la1":30.2992,"la2":30.254,"lo1":-89.0895,"lo2":-89.0443,"dy":0.0025,"dx":0.0025,"nx":19,"ny":19,"refTime":"2026-03-25T21:00:00:Z","depth":0,"parameterNumber":2,"parameterNumberName":"U-component_of_WINDS"},"data":[0,0,0,-1.8776,-1.8777,-1.8825,-1.8825,-1.8889,-1.889,0,0,0,0,0,0,0,0,0,0,0,-1.8763,-1.8764,-1.8776,-1.8778,-1.8825,-1.8825,-1.8889,-1.889,0,0,0,0,0,0,0,0,0,0,0,-1.8763,-1.8764,-1.8764,-1.8778,-1.8825,-1.8825,-1.8889,-1.8852,0,0,0,0,0,0,0,0,0,0,-1.8805,-1.8794,-1.8764,-1.8764,-1.8778,-1.8825,-1.8825,-1.885,-1.8855,-1.8869,0,-1.8881,0,-1.8887,-1.8894,-1.8895,0,0,0,-1.8777,-1.8791,-1.8803,-1.8764,-1.8778,-1.8825,-1.8803,-1.8853,-1.8857,-1.8874,-1.8882,-1.8885,-1.8888,-1.8895,-1.8895,-1.898,-1.8981,0,0,-1.8774,-1.8772,-1.88,-1.8806,-1.8798,-1.8802,-1.8805,-1.8855,-1.8864,-1.8883,-1.8886,-1.8889,-1.8895,-1.8896,-1.898,-1.898,0,0,0,-1.8767,-1.8771,-1.8781,-1.8803,-1.8812,-1.8803,-1.8807,-1.8862,-1.8865,-1.8887,-1.889,-1.8896,-1.8897,-1.8979,-1.898,-1.9,0,0,0,-1.8765,-1.8767,-1.878,-1.878,-1.8811,-1.8837,-1.8812,-1.8862,-1.8868,-1.8889,-1.8896,-1.8897,-1.8979,-1.898,-1.8998,-1.9009,0,0,0,-1.876,-1.8766,-1.8773,-1.878,-1.88,-1.8836,-1.8843,-1.8863,-1.887,-1.8895,-1.8897,-1.8979,-1.898,-1.8997,-1.9006,-1.9031,0,0,0,-1.8753,-1.8789,-1.8773,-1.8815,-1.88,-1.8848,-1.8842,-1.8879,-1.8903,-1.8896,-1.8979,-1.898,-1.8996,-1.9005,-1.9029,-1.905,-1.9059,0,0,-1.8798,-1.8795,-1.8819,-1.8807,-1.8858,-1.8841,-1.8895,-1.8919,-1.8923,-1.8961,-1.8963,-1.8998,-1.9006,-1.903,-1.911,-1.9117,0,0,0,-1.8833,-1.8851,-1.8865,-1.8887,-1.8907,-1.8924,-1.894,-1.8949,-1.8982,-1.8942,-1.9014,-1.9019,-1.9033,-1.9043,-1.9049,-1.9062,-1.8985,-1.8985,-1.8985,-1.8893,-1.8897,-1.8938,-1.8948,-1.8971,-1.8987,-1.9006,-1.9021,-1.9018,-1.9036,-1.9046,-1.9094,-1.9106,-1.9111,-1.9124,-1.9058,-1.9059,-1.9059,-1.9059,-1.8958,-1.8984,-1.898,-1.9019,-1.9023,-1.9056,-1.9075,-1.9072,-1.9104,-1.9086,-1.9099,-1.9078,-1.9118,-1.913,-1.906,-1.906,-1.906,-1.906,-1.906,-1.8997,-1.901,-1.9021,-1.9055,-1.9082,-1.9092,-1.9123,-1.9126,-1.9129,-1.9142,-1.9154,-1.9154,-1.9153,-1.9148,-1.9148,-1.9148,-1.9148,-1.9148,-1.9148,-1.9033,-1.9044,-1.907,-1.9095,-1.9111,-1.9132,-1.9151,-1.9167,-1.9185,-1.9185,-1.9185,-1.9181,-1.9121,-1.9106,-1.9151,-1.915,-1.915,-1.915,-1.915,-1.9096,-1.9083,-1.9122,-1.9138,-1.9168,-1.9195,-1.9199,-1.9232,-1.9246,-1.9262,-1.9255,-1.9211,-1.9208,-1.9203,-1.919,-1.9254,-1.9254,-1.9254,-1.9254,-1.9129,-1.9128,-1.9169,-1.9195,-1.9221,-1.9229,-1.9275,-1.9291,-1.9305,-1.9314,-1.9306,-1.929,-1.9285,-1.9284,-1.9278,-1.9266,-1.9348,-1.9348,-1.9348,-1.9168,-1.917,-1.9208,-1.9221,-1.9246,-1.9267,-1.931,-1.9341,-1.9355,-1.9352,-1.9322,-1.9318,-1.9291,-1.9283,-1.9278,-1.9268,-1.9246,0,0]},{"header":{"parameterUnit":"m.s-1","parameterCategory":1,"la1":30.2992,"la2":30.254,"lo1":-89.0895,"lo2":-89.0443,"dy":0.0025,"dx":0.0025,"nx":19,"ny":19,"refTime":"2026-03-25T21:00:00:Z","depth":0,"parameterNumber":3,"parameterNumberName":"V-component_of_WINDS"},"data":[0,0,0,3.6161,3.6162,3.6202,3.6202,3.6251,3.6252,0,0,0,0,0,0,0,0,0,0,0,3.6149,3.6149,3.6161,3.6162,3.6202,3.6202,3.6251,3.6252,0,0,0,0,0,0,0,0,0,0,0,3.6149,3.6149,3.6149,3.6162,3.6202,3.6202,3.6251,3.6221,0,0,0,0,0,0,0,0,0,0,3.6183,3.6171,3.6149,3.6149,3.6162,3.6202,3.6202,3.622,3.6223,3.6233,0,3.6242,0,3.6248,3.6255,3.6255,0,0,0,3.6161,3.6169,3.618,3.615,3.6162,3.6202,3.6184,3.6222,3.6225,3.6237,3.6243,3.6245,3.6249,3.6255,3.6255,3.6316,3.6316,0,0,3.6159,3.6155,3.6177,3.6182,3.6177,3.6182,3.6185,3.6224,3.6229,3.6243,3.6246,3.6249,3.6256,3.6256,3.6316,3.6316,0,0,0,3.6153,3.6154,3.6164,3.618,3.6188,3.6183,3.6186,3.6228,3.6231,3.6246,3.625,3.6256,3.6256,3.6315,3.6316,3.6328,0,0,0,3.6152,3.615,3.6163,3.6161,3.6187,3.6208,3.6189,3.6229,3.6233,3.625,3.6256,3.6257,3.6315,3.6316,3.6327,3.6334,0,0,0,3.6146,3.615,3.6156,3.6161,3.6178,3.6208,3.6214,3.623,3.6236,3.6255,3.6257,3.6315,3.6316,3.6326,3.6333,3.635,0,0,0,3.6139,3.6164,3.6156,3.6186,3.6178,3.6216,3.6214,3.6241,3.626,3.6256,3.6315,3.6316,3.6326,3.6332,3.6349,3.6365,3.6371,0,0,3.6169,3.6168,3.6186,3.6179,3.6218,3.621,3.625,3.6269,3.6273,3.6301,3.6303,3.6328,3.6333,3.635,3.6405,3.641,0,0,0,3.6194,3.6207,3.6218,3.6237,3.6253,3.6268,3.6282,3.629,3.6314,3.6287,3.6338,3.6342,3.6352,3.6359,3.6364,3.6373,3.6319,3.6319,3.6319,3.623,3.6237,3.6268,3.6279,3.6297,3.6313,3.6328,3.634,3.6339,3.6351,3.636,3.6392,3.6401,3.6404,3.6414,3.6368,3.6368,3.6368,3.6368,3.6276,3.6296,3.6297,3.6327,3.6334,3.6359,3.6375,3.6374,3.6398,3.6386,3.6395,3.6382,3.6409,3.6418,3.6369,3.6369,3.6369,3.6369,3.6369,3.63,3.6311,3.6322,3.6351,3.6372,3.6382,3.6407,3.6411,3.6414,3.6424,3.6434,3.6434,3.6434,3.6428,3.6429,3.6429,3.6429,3.6429,3.6429,3.6322,3.6333,3.6354,3.6376,3.639,3.6408,3.6425,3.6438,3.6454,3.6455,3.6455,3.6453,3.6411,3.6401,3.6431,3.643,3.643,3.643,3.643,3.6366,3.6358,3.6389,3.6403,3.643,3.6452,3.6458,3.6485,3.6496,3.6508,3.6505,3.6473,3.6472,3.6468,3.646,3.6504,3.6504,3.6504,3.6504,3.6387,3.6388,3.6423,3.6445,3.6467,3.6477,3.6512,3.6527,3.6539,3.6547,3.6541,3.653,3.6526,3.6527,3.6523,3.6515,3.6571,3.6571,3.6572,3.6415,3.6418,3.6448,3.6463,3.6485,3.6504,3.6538,3.6563,3.6575,3.6574,3.6553,3.655,3.6532,3.6526,3.6524,3.6517,3.6502,0,0]}]]